カタログに戻る

CZ-3B DEB

LostGTO
NORAD 40181·DEBRIS·🇨🇳 China

打ち上げ Dec 19, 2011 から Xichang Satellite Launch Center

Loading…

TLE

古いSource: Space-Track

元期: Mar 8, 2025, 00:02 UTC

1 40181U 11077E   25067.00191574  .00002681  00000-0  12578-1 0  9998
2 40181  22.5472 326.0058 7473047 215.6392  57.2734  1.97015307 81754

AllMySatでCZ-3B DEBをリアルタイム追跡

Download on the App Store